Other Surface Observations
Issued by NWS Tucson, AZ

Home | Current Version | Previous Version | Text Only | Print | Product List | Glossary On
Versions: 1 2 3 4 5 6 7 8 9 10 11 12 13 14 15 16 17 18 19 20 21 22 23 24 25 26 27 28 29 30 31 32 33 34 35 36 37 38 39 40 41 42 43 44 45 46 47 48 49 50
000
SXUS55 KTWC 240715
OSOTWC

WEATHER ROUNDUP FOR SOUTHEAST ARIZONA
NATIONAL WEATHER SERVICE TUCSON AZ
1215 AM MST TUE JAN 24 2017

AZZ504>506-514-240815-
LOCATION       SKY/WX    TMP DP  RH WIND       PRES   REMARKS
TUCSON         RAIN      46  43  89 NW14G22   29.86R
DAVIS-MONTHAN  RAIN      45  45 100 W14G20    29.85R
CHILDRENS PARK N/A      N/A N/A  81 NW7               PIMA CO DEQ
ALVERNON/22ND  N/A       50 N/A N/A W9                PIMA CO DEQ
CHERRY/GLENN   N/A       51 N/A N/A W7                PIMA CO DEQ
TANGERINE      N/A       46 N/A N/A NW8               PIMA CO DEQ
CONTL RANCH    N/A       47  43  85 NW12              PIMA CO DEQ
GRANT/1ST      N/A       50  44  80 W8                PIMA CO DEQ
CRAYCROFT/22ND N/A       50  45  83 N/A               PIMA CO DEQ
GOLFLINKS/KOLB N/A       50  44  80 W10               PIMA CO DEQ
AJO/12TH       N/A       50  45  84 SW12              PIMA CO DEQ
FAIRGROUNDS    N/A       49 N/A N/A SW17              PIMA CO DEQ
SAGUARO        N/A       45  41  86 W10G21            *SABINO CYN
SAN CARLOS     N/A       44  41  90 N3                *SAN CARLOS
GREEN VALLEY   N/A       47  43  86 SW15              PIMA CO DEQ
HORSE CAMP CYN N/A       39  38  97 W15G24            *ARAVAIPA CYN
RINCON MTNS    N/A       29  29  100 SW9G23           *NR MANNING CAMP
$$

AZZ509>511-240815-
LOCATION       SKY/WX    TMP DP  RH WIND       PRES   REMARKS
SAFFORD        CLOUDY    46  40  79 NW18      29.72R
STRAY HORSE    N/A       29  29  100 N/A              *
TRAIL CABIN    N/A       35  33  92 W6G15             *N OF GRANVILLE
BLACK HILLS    NOT AVBL
DRY LAKE       N/A       29  29  100 W9G22            *NATANES MTNS
NOON CREEK     N/A       41  36  82 NE10G29           *PINALENO MTNS
COLUMBINE      NOT AVBL
GUTHRIE        N/A       37  36  96 W11G30            *SW OF GUTHRIE
$$

AZZ502-503-513-240815-
LOCATION       SKY/WX    TMP DP  RH WIND       PRES   REMARKS
NOGALES        MOCLDY    44  37  76 S18G30    29.85S
SELLS          N/A       45  45  100 NE4G14           *
SASABE         N/A       45  41  86 SW17G23           *ALTAR VLY
HOPKINS        N/A       32  32  98 W12G29            *SANTA RITA MTNS
CARR CYN       N/A       43  32  66 NW5G19            *W OF HEREFORD
$$

AZZ507-508-512-240815-
LOCATION       SKY/WX    TMP DP  RH WIND       PRES   REMARKS
SIERRA VISTA   PTCLDY    44  33  66 SW23G38   29.82R
DOUGLAS        PTCLDY    48  39  71 W18G25    29.81R
EMPIRE MTNS    NOT AVBL
MULESHOE RANCH N/A       41  38  88 W13G33            *PRESERVE
HEADQUARTERS   N/A       46  33  61 W11G34            *CHIRICAHUA MTNS
$$

.............................NOTES.............................
THIS IS AN AUTOMATED COLLECTIVE WITH MINIMAL QUALITY CONTROL.
PIMA CO DEQ SITES HAVE NONSTANDARD WIND SENSOR HEIGHTS.
PIMA CO DEQ SITES DO NOT REPORT WIND GUSTS.
* INDICATES WIND SENSORS LOCATED AT 20 FEET INSTEAD OF 33 FEET.
..............................KEY..............................
SKY/WX - SKY CONDITION/WEATHER
TMP    - TEMPERATURE IN FAHRENHEIT
DP     - DEWPOINT IN FAHRENHEIT
RH     - RELATIVE HUMIDITY IN PERCENT
WIND   - DIRECTION AND SPEED IN MILES PER HOUR (MPH)
VRB    - VARIABLE WIND DIRECTION
PRES   - MEAN SEA LEVEL PRESSURE IN INCHES OF MERCURY
         F - FALLING PRESSURE   R - RISING PRESSURE
         S - STEADY PRESSURE
VSB    - VISIBILITY IN MILES
HX     - HEAT INDEX IN FAHRENHEIT
WCI    - WIND CHILL INDEX IN FAHRENHEIT
N/A    - NOT AVAILABLE
AFB    - AIR FORCE BASE
         DAVIS-MONTHAN IS DAVIS-MONTHAN AIR FORCE BASE
CYN    - CANYON
MTNS   - MOUNTAINS
NCA    - NATIONAL CONSERVATION AREA
NR     - NEAR
VLY    - VALLEY
CONTL  - CONTINENTAL
PIMA CO DEQ - PIMA COUNTY DEPT OF ENVIRONMENTAL QUALITY



USA.gov is the U.S. government's official web portal to all federal, state and local government web resources and services.